Simultaneous Nadir Overpasses (SNOs) Predictions

Prediction of SNOs over PacNW region [( 10.00, 139.50) to ( 22.70, 165.60)] between AQUA and NPP Satellites:

Table of predicted SNOs over PacNW region for the next 30.0 days since TLE Epoch: 8/7/2015
Index Date (AQUA) Time (AQUA) AQUA Lat,Lon Date (NPP) Time (NPP) NPP Lat,Lon Distance(km) Time Diff (sec)
1 08/10/2015 03:29:21 13.26, 149.65 08/10/2015 03:28:28 12.91, 148.10 172.73 53
2 08/18/2015 02:41:11 18.05, 160.94 08/18/2015 02:38:58 17.80, 159.65 139.79 133
3 08/23/2015 15:10:00 22.59, 159.82 08/23/2015 15:13:28 27.68, 158.38 584.45 208
4 08/26/2015 03:29:20 13.74, 149.56 08/26/2015 03:28:19 13.39, 148.01 172.29 61
5 09/03/2015 02:40:59 18.26, 160.93 09/03/2015 02:38:43 17.99, 159.62 141.59 136
